Tracking 29892 objects as of 21-Nov-2024
HD Live streaming from Space Station
objects crossing your sky now

COSMOS 1285 DEB

Track COSMOS 1285 DEB now!


NORAD ID: 27800
Int'l Code: 1981-071P
Perigee: 1,651.6 km
Apogee: 39,247.6 km
Inclination: 64.5 °
Period: 728.6 minutes
Semi major axis: 26820 km
RCS: 0.3991 m2 (medium)
Launch date: August 4, 1981
Source: Commonwealth of Independent States (former USSR) (CIS)
Launch site: PLESETSK MISSILE AND SPACE COMPLEX (PKMTR)

Note: This is SATELLITE DEBRIS
Your satellite tracking list
Your tracking list is empty




NASA's NSSDC Master Catalog

Two Line Element Set (TLE):
1 27800U 81071P   24323.74162345 -.00000543  00000-0  00000-0 0  9993
2 27800  64.4688 133.1791 7008789  37.6118 354.9253  1.97651280182039
Source of the keplerian elements: AFSPC